FW3899 Weather Reports


time (UTC)temp
F
wind
direction
speed
knots
gust
knots
rain 1hr
in
rain 24hr
in
rain mn
in
humidity
%
barometer
mb
20260506184518 47 218 3.5 7.8 0.00 0.38 0.38 90 1009.6
20260506183018 47 247 3.5 7.0 0.00 0.38 0.38 89 1009.3
20260506181524 48 226 4.3 8.7 0.00 0.38 0.38 88 1009.1
20260506180016 48 248 6.1 10.4 0.00 0.38 0.38 88 1009.0
20260506174514 49 258 6.1 11.3 0.00 0.38 0.38 88 1008.9
20260506173014 49 252 7.8 11.3 0.00 0.38 0.38 88 1008.7
20260506171522 49 270 7.8 12.2 0.00 0.38 0.38 88 1008.5
20260506170011 49 243 7.8 14.8 0.00 0.40 0.38 88 1008.3
20260506164511 49 230 7.8 15.6 0.00 0.40 0.38 88 1008.4
20260506163011 50 216 9.6 12.2 0.00 0.40 0.38 89 1008.6
20260506161509 50 227 7.0 10.4 0.00 0.40 0.38 88 1008.4
20260506160011 50 202 7.0 13.0 0.00 0.41 0.38 88 1008.4
20260506154508 50 207 5.2 10.4 0.00 0.41 0.38 90 1008.5
20260506153008 50 265 5.2 12.2 0.00 0.41 0.38 89 1008.5
20260506151507 49 274 6.1 11.3 0.00 0.41 0.38 91 1008.4
20260506150017 49 253 7.0 8.7 0.00 0.41 0.38 91 1008.4
20260506144506 49 209 7.0 11.3 0.00 0.41 0.38 92 1008.4
20260506143023 49 226 5.2 7.8 0.00 0.41 0.38 93 1008.4
20260506141506 49 259 5.2 10.4 0.00 0.41 0.38 94 1008.3
20260506140007 49 228 1.7 8.7 0.02 0.41 0.38 95 1008.2
20260506134503 48 268 6.1 9.6 0.03 0.41 0.38 95 1008.2
20260506133004 48 245 5.2 10.4 0.06 0.41 0.38 96 1008.1
20260506131502 48 284 5.2 11.3 0.08 0.41 0.38 96 1008.0
20260506130002 48 236 5.2 12.2 0.09 0.39 0.36 96 1007.9
20260506124600 47 278 9.6 14.8 0.13 0.38 0.35 95 1007.7
20260506123100 47 269 9.6 17.4 0.20 0.35 0.32 95 1007.5
20260506121603 47 245 10.4 20.9 0.25 0.33 0.30 95 1007.2
20260506114557 49 239 12.2 24.3 0.21 0.25 0.22 93 1007.0
20260506113104 51 275 7.8 14.8 0.12 0.16 0.13 93 1006.8
20260506111554 52 264 5.2 7.8 0.04 0.08 0.05 93 1006.4
20260506110100 52 276 6.1 8.7 0.01 0.05 0.02 92 1006.3
20260506104605 53 270 6.1 8.7 0.00 0.04 0.01 91 1006.3
20260506103052 55 291 5.2 7.8 0.00 0.04 0.01 89 1006.3
20260506101555 55 303 1.7 4.3 0.00 0.04 0.01 86 1006.3
20260506100046 55 332 0.9 4.3 0.01 0.04 0.01 88 1006.2
20260506094552 54 305 0.0 0.0 0.01 0.04 0.01 87 1006.2
20260506093047 54 316 0.9 1.7 0.01 0.04 0.01 87 1006.3
20260506091542 54 346 0.0 0.0 0.01 0.04 0.01 87 1006.2
20260506090043 54 309 0.9 2.6 0.00 0.03 0.00 86 1006.1
20260506084539 54 67 0.0 0.0 0.00 0.03 0.00 85 1006.1
20260506083041 53 68 0.0 0.0 0.00 0.03 0.00 84 1005.9
20260506081538 54 81 0.0 0.0 0.00 0.03 0.00 86 1006.0
20260506073042 53 49 1.7 3.5 0.00 0.03 0.00 89 1006.1
20260506071541 54 49 0.0 2.6 0.00 0.03 0.00 90 1005.9
20260506061522 51 190 0.0 0.0 0.00 0.03 0.00 94 1006.0
20260506044509 47 300 0.9 2.6 0.00 0.03 0.00 93 1006.2
20260506043002 47 306 1.7 2.6 0.00 0.03 0.00 93 1006.1
20260506041608 47 213 0.0 0.9 0.00 0.03 0.00 92 1006.1
20260506040058 48 214 0.0 0.0 0.00 0.03 0.00 92 1006.2
20260506034557 49 214 0.0 1.7 0.00 0.03 0.00 92 1006.5
20260506033105 49 214 0.0 1.7 0.00 0.03 0.00 91 1006.5
20260506031557 49 214 0.0 0.9 0.00 0.03 0.00 90 1006.6
20260506030052 50 229 0.0 3.5 0.00 0.03 0.00 90 1006.8
20260506024549 50 229 1.7 4.3 0.00 0.03 0.00 89 1007.0
20260506023051 50 259 3.5 7.8 0.00 0.03 0.00 89 1007.0
20260506021553 51 218 3.5 10.4 0.00 0.03 0.00 89 1007.1
20260506020046 51 276 7.8 12.2 0.00 0.03 0.00 88 1007.2
20260506014550 51 272 7.8 11.3 0.00 0.03 0.00 89 1007.5
20260506013041 51 265 7.0 10.4 0.00 0.03 0.00 89 1007.6
20260506011541 50 288 4.3 7.8 0.00 0.03 0.00 90 1007.9
20260506010037 50 220 4.3 7.0 0.00 0.03 0.00 93 1008.0
20260506004541 49 235 0.9 2.6 0.00 0.03 0.00 91 1008.2
20260506003033 49 237 1.7 3.5 0.00 0.03 0.00 91 1008.3
20260506001534 50 237 2.6 5.2 0.00 0.03 0.00 90 1008.4
20260506000039 50 218 3.5 7.8 0.00 0.03 0.00 90 1008.5
20260505234530 50 252 4.3 8.7 0.00 0.03 0.00 91 1008.5
20260505233027 50 255 3.5 6.1 0.00 0.03 0.00 92 1008.6
20260505231524 50 232 2.6 7.0 0.00 0.03 0.00 94 1008.7
20260505230020 49 201 2.6 4.3 0.00 0.03 0.00 93 1008.9
20260505224519 49 307 0.9 2.6 0.00 0.03 0.00 94 1008.9
20260505223014 49 220 0.0 3.5 0.00 0.03 0.00 94 1008.8
20260505221513 49 199 1.7 3.5 0.00 0.03 0.00 93 1008.8
20260505220024 49 196 1.7 3.5 0.00 0.03 0.03 93 1009.0
20260505214516 49 193 2.6 3.5 0.00 0.03 0.03 92 1009.1
20260505213010 50 201 0.9 2.6 0.00 0.03 0.03 92 1009.2
20260505211509 50 207 1.7 2.6 0.00 0.03 0.03 92 1009.2
20260505210009 50 204 1.7 3.5 0.00 0.03 0.03 93 1009.2
20260505204515 50 197 2.6 4.3 0.00 0.03 0.03 93 1009.3
20260505203008 50 192 2.6 3.5 0.00 0.03 0.03 93 1009.3
20260505201507 50 208 2.6 5.2 0.00 0.03 0.03 93 1009.0
20260505200009 50 202 2.6 5.2 0.00 0.03 0.03 93 1009.1
20260505194507 50 196 2.6 4.3 0.00 0.03 0.03 92 1009.0
20260505193017 50 217 3.5 5.2 0.00 0.03 0.03 92 1008.9
20260505191504 51 203 2.6 4.3 0.00 0.03 0.03 90 1008.6
20260505190011 52 178 0.9 3.5 0.00 0.03 0.03 90 1008.6